SCP
-0 -0 0 0 0 0 0 -0 -0 -0 -0 0 0 0 0 0 0 0 0 -0 0 0 0 0 0 0 0 0 0 0 0 0 0 0 0 0 0 0 0 0 0 0 0 0 0 0 0 0 0 0 0 0 0 0
0 -0 0 0 0 0 0 -0 -0 -0 -0 -0 0 0 0 0 0 0 0 0 0 0 0 0 0 0 0 0 0 0 0 0 0 0 0 0 0 0 0 0 0 0 0 0 0 0 -0 0 0 0 0 0 0 0
0 0 -0 0 0 0 0 0 -0 -0 -0 -0 0 0 0 0 0 0 0 0 0 0 0 0 0 0 0 0 0 0 0 0 0 0 0 0 0 0 0 0 0 0 0 0 0 0 0 0 0 0 0 -0 0 0
0 0 0 -0 0 0 0 0 -0 -0 -0 -0 0 0 0 0 0 0 0 0 0 0 0 0 0 0 0 0 0 0 0 0 0 0 0 0 0 0 0 0 0 0 0 0 0 0 0 0 0 0 0 0 0 0
0 0 0 -0 -0 0 0 0 0 -0 -0 -0 0 0 0 0 0 0 0 0 0 0 0 0 0 0 0 0 0 0 0 0 0 0 0 0 0 0 0 -0 0 0 0 0 0 0 0 0 0 0 0 0 0 0
0 0 0 0 -0 0 0 0 0 0 -0 -0 0 0 0 0 0 0 0 0 0 -0 -0 -0 0 0 0 0 0 0 0 0 0 0 0 0 0 0 0 -0 -0 0 0 0 0 0 0 0 0 0 0 0 0 0
0 0 0 0 0 -0 0 0 0 0 -0 -0 0 0 0 0 0 0 0 0 0 0 -0 -0 -0 0 0 0 0 0 0 0 0 0 0 0 0 0 0 0 0 -0 0 0 0 0 0 0 0 0 0 0 0 0
0 0 0 0 0 0 0 0 0 0 0 0 0 0 0 0 0 0 0 0 0 0 0 -0 -0 -0 0 0 0 0 0 0 0 0 0 0 0 0 0 0 0 0 0 0 0 0 0 0 0 0 0 0 0 0
0 0 0 0 0 0 0 0 0 0 0 0 0 0 0 0 0 0 0 0 0 0 0 0 0 -0 0 0 0 0 0 0 0 0 0 0 0 0 0 -0 0 0 0 0 0 0 0 0 0 0 0 0 0 0
0 0 0 0 0 0 0 0 0 0 0 0 0 0 0 0 0 0 0 0 0 0 0 -0 0 0 -0 0 0 0 0 0 0 0 0 0 0 0 0 0 0 0 0 0 0 0 0 0 0 0 0 0 0 0
0 0 0 0 0 0 0 0 0 0 0 0 0 0 0 0 0 0 0 0 0 0 0 0 0 0 0 0 0 -0 -0 -0 0 0 0 0 0 0 0 0 0 0 0 0 0 0 0 0 0 0 0 0 0 0
0 0 0 0 0 0 0 0 0 0 0 0 0 0 0 0 0 0 0 0 -0 0 0 0 0 0 0 0 0 0 -0 -0 -0 0 -0 -0 -0 0 0 0 0 0 0 0 0 0 0 0 0 0 0 0 0 0
0 0 0 0 0 0 0 0 0 0 0 0 0 0 0 0 0 0 0 0 0 0 0 0 0 0 0 0 0 0 -0 0 0 0 -0 -0 0 0 0 0 0 0 0 0 0 0 0 0 0 0 0 0 0 0
0 0 0 0 0 0 0 0 0 0 0 0 0 0 0 0 0 0 0 0 0 0 0 0 0 0 0 0 0 0 0 0 0 0 0 0 0 0 0 0 0 0 0 0 0 0 0 0 0 0 0 0 0 0
0 0 0 0 0 0 0 0 0 0 0 0 0 0 0 0 0 0 0 0 0 0 0 0 0 0 0 0 0 0 0 0 0 0 0 0 -0 -0 0 0 0 0 0 0 0 0 0 0 0 0 0 0 0 0
0 0 0 0 0 0 0 0 0 0 0 0 0 0 0 0 0 0 0 0 0 0 0 0 0 0 0 0 0 0 0 0 0 0 0 0 0 0 0 0 0 0 0 0 0 0 0 0 0 0 0 0 0 0
0 0 0 0 0 0 0 0 0 0 0 0 0 0 0 0 0 0 0 0 0 0 0 0 0 0 0 0 -0 -0 0 0 0 0 0 0 0 0 0 0 0 0 0 0 0 0 0 0 0 0 0 0 0 0
0 0 0 0 0 0 0 0 0 0 0 0 0 0 0 0 0 0 0 0 0 0 0 0 0 0 0 0 0 0 0 0 0 0 0 0 0 0 0 0 0 0 0 0 0 0 0 0 0 0 0 0 0 0
0 0 0 0 0 0 0 0 0 0 0 0 0 0 0 0 0 0 0 0 0 0 0 0 0 0 0 0 0 0 0 0 0 0 0 0 0 0 0 0 0 0 0 0 0 0 0 -0 0 0 0 0 0 0
0 0 0 0 0 0 0 0 0 0 0 0 0 0 0 0 0 0 0 0 0 0 0 0 0 0 0 0 0 0 0 0 0 0 0 0 0 0 0 0 0 0 0 0 0 0 0 0 0 0 0 0 0 0
0 0 0 0 0 0 0 0 0 0 0 0 0 0 0 0 0 0 0 0 0 0 0 0 0 0 0 0 0 0 0 0 0 0 0 0 0 0 0 0 0 0 0 0 0 0 0 0 0 0 0 0 0 0
0 0 0 0 0 -0 0 0 0 0 0 0 0 0 0 0 0 0 0 0 0 0 0 0 0 0 0 0 0 0 0 0 0 0 0 0 0 0 0 0 0 0 0 0 0 0 0 0 0 0 0 0 0 0
0 0 0 0 0 0 0 0 0 0 0 0 0 0 0 0 0 0 0 0 0 0 0 0 0 0 0 0 0 0 0 0 0 0 0 0 0 0 0 0 0 0 0 0 0 0 0 0 0 0 0 0 0 0
0 0 0 0 0 0 0 0 0 0 0 0 0 0 0 0 0 0 0 0 0 0 0 0 0 0 0 0 0 0 0 0 0 0 0 0 0 0 0 0 0 0 0 0 0 0 0 0 0 0 0 0 0 0
0 0 0 0 0 0 0 0 0 0 0 0 0 0 0 0 0 0 0 0 0 0 0 0 0 0 0 0 0 0 0 0 0 0 0 0 0 0 0 0 0 0 0 0 0 0 0 0 0 0 0 0 0 0
0 0 0 0 0 0 0 0 0 0 0 0 0 0 0 0 0 0 0 0 0 0 0 0 0 0 0 0 0 0 0 0 0 0 0 0 0 0 0 0 0 0 0 0 0 0 0 0 0 0 0 0 0 0
0 0 0 0 0 0 0 0 0 0 0 0 0 0 0 0 0 0 0 0 0 0 0 0 0 0 0 0 0 0 0 0 0 0 0 0 0 0 0 0 0 0 0 0 0 0 0 0 0 0 0 0 0 0
0 0 0 0 0 0 0 0 0 0 0 0 0 0 0 0 0 0 0 0 0 0 0 0 0 0 0 0 0 0 0 0 0 0 0 0 0 0 0 0 0 0 0 0 0 0 0 0 0 0 0 0 0 0
0 0 0 0 0 0 0 0 0 0 0 0 0 0 0 0 0 0 0 0 0 0 0 0 0 0 0 0 0 0 0 0 0 0 0 0 0 0 0 0 0 0 0 0 0 0 0 0 0 0 0 0 0 0
0 0 0 0 0 0 0 0 0 0 0 0 0 0 0 0 0 0 0 0 0 0 0 0 0 0 0 0 0 0 0 0 0 0 0 0 0 0 0 0 0 0 0 0 0 0 0 0 0 0 0 0 0 0
0 0 0 0 0 0 0 0 0 0 0 0 0 0 0 0 0 0 0 0 0 0 0 0 0 0 0 0 0 0 0 0 0 0 0 0 0 0 0 0 0 0 0 0 0 0 0 0 0 0 0 0 0 0
0 0 0 0 0 0 0 0 0 0 0 0 0 0 0 0 0 0 0 0 0 0 0 0 0 0 0 0 0 0 0 0 0 0 0 0 0 0 0 0 0 0 0 0 0 0 0 0 0 0 0 0 0 0
0 0 0 0 0 0 0 0 0 0 0 0 0 0 0 0 0 0 0 0 0 0 0 0 0 0 0 0 0 0 0 0 0 0 0 0 0 0 0 0 0 0 0 0 0 0 0 0 0 0 0 0 0 0
Wind_Speed_500mb
29 27 25 27 31 28 18 21 24 21 18 15 17 16 9 6 7 16 22 23 35 16 31 28 44 18 27 29 9 14 9 2 7 9 7 7 6 9 6 7 11 18 13 11 6 4 16 15 11 17 7 1 1 4
30 30 29 27 33 35 30 21 25 27 23 20 19 20 15 15 20 25 32 24 28 38 15 38 55 45 42 50 41 38 14 17 23 6 6 4 3 4 4 7 4 8 10 11 16 13 12 40 19 39 4 2 3 3
36 34 34 30 29 34 37 33 28 24 27 23 22 21 19 19 24 31 30 30 27 31 31 35 44 53 46 40 46 19 10 19 18 8 10 4 6 5 7 8 4 9 3 3 7 10 13 34 54 24 24 6 6 11
39 41 36 34 32 32 37 39 31 27 28 26 23 21 19 19 24 23 22 22 32 7 7 11 35 41 61 34 35 38 24 27 22 16 7 5 5 8 5 6 1 1 3 9 9 9 4 25 41 50 34 17 13 15
44 41 40 38 34 32 37 40 36 29 28 27 22 21 18 17 14 7 6 19 22 16 4 3 16 32 43 56 27 26 24 28 20 9 2 5 7 6 2 2 6 14 10 7 10 25 21 16 44 50 36 35 27 27
48 45 42 38 37 35 33 42 38 32 34 29 23 19 19 7 3 2 4 9 17 24 6 3 5 16 26 36 36 28 28 17 12 9 8 8 10 9 6 6 13 19 20 27 17 20 40 18 18 26 38 36 33 29
52 50 46 44 40 36 33 38 42 31 30 31 26 21 16 13 18 14 8 6 22 18 8 3 4 5 16 18 18 19 24 12 11 7 7 11 5 8 4 9 13 38 23 19 33 25 15 26 13 17 17 27 36 33
57 54 50 47 42 39 33 32 44 33 28 24 24 19 16 13 20 29 26 16 26 20 7 3 2 5 18 9 9 19 17 16 16 7 8 6 10 3 9 20 41 56 48 45 43 37 30 23 25 22 21 24 27 24
64 60 55 51 46 44 34 33 44 37 31 25 28 20 12 12 14 10 13 12 31 12 7 6 9 9 22 8 11 13 13 5 15 6 8 17 6 12 13 16 34 48 49 45 38 30 24 28 28 25 21 15 11 11
66 68 62 57 51 49 37 37 41 42 31 36 27 11 11 12 12 16 13 15 16 13 14 4 12 6 17 11 7 10 7 6 5 7 17 7 10 40 29 21 26 37 41 36 48 38 31 25 23 18 14 15 15 15
70 69 73 66 60 56 46 42 42 48 41 44 18 12 13 19 18 10 8 6 8 6 17 9 16 9 14 5 5 6 4 4 5 8 9 6 8 11 51 48 37 40 35 37 29 23 20 22 24 21 18 14 8 5
79 76 78 74 71 62 56 48 51 60 28 42 17 17 19 13 8 6 7 2 8 11 13 12 10 12 13 9 6 5 4 3 7 9 2 7 8 15 45 49 44 43 41 32 31 31 30 25 22 19 16 14 10 4
58 82 80 82 74 69 54 61 64 70 47 46 16 13 11 10 4 14 16 9 4 17 25 19 9 14 10 7 8 4 6 6 7 5 8 8 7 28 29 30 30 30 35 35 36 35 32 29 25 20 13 8 2 6
67 48 91 83 90 69 64 69 71 69 55 18 20 9 12 8 11 11 10 10 15 19 41 38 15 8 7 5 4 9 4 3 1 5 11 4 32 42 40 41 48 48 45 42 39 33 27 22 16 10 5 8 14 21
46 69 44 98 81 82 79 73 80 83 30 20 17 13 15 17 6 12 18 22 16 49 59 20 10 10 1 8 3 7 7 8 10 9 6 29 54 57 54 52 48 44 38 33 28 22 17 12 7 6 11 17 23 28
62 47 69 63 94 87 73 71 84 95 15 25 17 7 5 8 3 16 23 19 44 56 34 9 7 7 2 9 7 14 13 12 8 7 26 61 62 57 53 46 39 32 25 19 13 7 1 6 12 15 18 21 25 27
51 55 51 55 83 85 83 74 66 46 18 19 8 33 29 12 16 25 33 38 59 54 7 7 9 14 6 6 3 9 10 7 8 28 63 65 58 48 40 32 23 15 8 2 4 10 14 16 18 19 17 15 15 15
67 60 60 58 61 96 91 59 38 24 15 15 14 27 42 14 24 26 29 58 50 23 22 11 19 6 11 13 7 8 10 20 36 61 63 55 45 36 25 14 6 2 6 9 13 14 16 15 13 11 5 4 6 7
67 63 54 60 60 51 36 37 31 10 12 17 27 59 40 23 22 26 38 80 29 31 25 12 8 7 8 9 9 26 52 56 68 61 55 46 34 22 11 4 3 6 8 7 6 7 9 8 3 1 3 3 6 10
57 61 67 60 57 29 21 18 50 18 10 19 34 36 25 21 33 37 45 60 32 18 5 5 8 10 12 14 19 50 65 75 81 66 49 39 29 18 11 6 6 8 11 13 13 10 6 3 4 6 10 12 12 15
55 63 59 54 38 40 17 22 18 30 28 14 36 32 20 34 26 22 30 43 13 6 3 6 10 15 17 22 35 50 65 77 78 71 68 48 31 20 17 16 13 12 10 8 4 3 2 4 7 10 12 15 19 21
60 57 58 49 27 15 6 16 30 28 20 29 27 18 19 5 13 22 36 8 8 4 5 7 24 27 33 45 52 53 67 61 50 42 41 33 35 31 24 19 15 12 9 6 2 2 6 9 11 13 15 16 18 19
54 45 33 23 11 6 6 28 13 11 11 19 23 9 5 7 19 42 9 8 6 4 11 27 33 36 49 54 56 56 48 43 42 39 38 37 36 31 25 21 16 11 9 7 5 6 7 9 11 12 14 15 14 13
54 35 22 14 11 7 5 3 14 14 13 9 8 10 6 7 25 6 8 6 10 10 22 32 40 46 46 44 46 45 41 36 39 39 34 34 37 34 26 21 18 15 12 13 13 12 11 10 11 13 14 17 18 18
13 11 11 8 10 10 7 6 9 8 8 6 9 7 7 14 5 6 5 6 14 20 25 30 31 34 44 43 40 39 38 34 35 38 35 26 29 32 29 25 23 20 18 15 13 13 13 12 11 12 16 19 20 22
5 9 2 7 7 7 10 10 11 11 9 7 6 9 9 6 9 8 5 9 8 11 16 21 25 31 32 32 36 37 36 34 32 33 34 30 26 22 27 26 26 23 22 19 17 17 18 19 18 18 20 24 27 28
11 11 11 22 7 9 7 12 13 11 11 8 8 8 7 9 7 5 5 16 11 10 12 19 21 27 34 32 30 33 36 35 31 31 36 31 28 25 21 20 20 19 19 17 17 17 16 17 18 18 20 23 26 28
13 21 13 17 16 24 9 10 11 10 7 10 10 12 8 8 5 5 9 13 17 20 23 27 28 30 32 32 35 40 41 39 42 39 36 34 29 25 22 20 18 17 14 11 11 12 12 12 13 15 17 18 22 23
13 30 16 20 10 14 19 13 9 15 14 7 8 7 9 12 16 21 25 24 26 33 40 40 39 34 35 37 40 43 46 44 39 36 31 31 27 22 18 16 14 11 9 8 8 8 9 10 11 13 14 16 18 19
22 27 11 15 13 19 22 27 27 42 49 45 58 92 80 68 59 43 40 39 39 41 40 41 41 41 46 43 42 40 35 30 26 24 26 24 20 19 16 13 11 10 8 7 6 6 8 9 11 13 12 10 10 11
16 23 18 19 16 53 67 78 88 95 92 89 76 81 71 57 78 71 58 46 41 40 41 42 41 41 41 42 41 40 38 32 29 27 25 22 19 17 14 13 11 9 9 8 7 7 7 8 9 11 12 13 16 19
22 21 18 42 36 58 64 68 70 75 69 65 51 41 33 23 20 37 60 41 38 42 41 39 39 38 34 33 33 33 32 28 24 23 21 18 16 14 12 11 9 8 8 8 9 10 12 12 13 13 14 17 19 21
25 33 38 34 19 13 16 14 15 19 31 20 29 31 34 17 18 26 35 46 41 29 27 28 32 32 30 28 25 23 21 19 18 16 15 13 11 9 8 6 5 6 6 7 9 10 11 13 15 16 18 19 21 23
Wind_Direction_500mb
264 263 265 246 240 229 233 248 253 252 258 268 264 268 285 278 267 245 262 239 235 247 252 249 236 227 201 200 147 160 102 191 156 200 174 205 175 211 163 205 176 182 165 181 128 116 257 176 123 175 242 346 37 58
261 253 259 260 244 237 229 238 251 251 250 258 268 268 273 283 285 284 277 280 245 246 256 241 232 243 235 221 207 181 192 162 176 143 214 139 128 144 178 205 175 241 195 170 178 205 197 184 193 217 316 210 134 120
256 256 249 255 256 238 235 230 246 253 245 250 266 272 274 283 291 285 271 262 257 244 261 222 225 225 226 217 211 181 209 181 186 164 140 166 200 135 175 240 181 231 144 204 91 235 198 201 213 223 221 222 139 136
251 253 251 248 252 252 236 231 238 248 244 246 260 278 281 296 297 278 265 265 221 225 255 231 220 224 223 223 212 207 193 189 176 171 134 148 158 193 185 134 20 309 279 170 272 290 279 238 226 233 218 187 176 158
247 247 250 248 245 249 241 233 228 239 236 248 252 274 281 302 307 293 305 219 222 213 306 278 224 217 225 231 229 211 194 177 169 133 124 216 153 129 178 100 220 157 246 190 227 185 209 221 231 236 224 206 193 182
242 244 246 247 241 244 248 230 223 236 228 240 248 262 271 295 243 197 256 188 224 219 304 306 228 211 207 209 207 211 200 172 172 181 189 208 169 174 177 220 212 161 212 288 306 294 219 222 221 239 235 220 209 220
237 236 239 244 238 235 241 229 216 230 234 234 242 247 253 257 244 257 274 255 199 212 240 289 243 204 183 180 182 201 211 197 192 184 226 151 197 178 213 228 220 213 245 259 268 279 232 207 211 221 224 205 197 193
235 232 232 236 237 230 232 234 211 217 223 230 223 235 242 250 230 256 260 255 214 194 220 234 135 170 181 154 141 165 166 167 192 227 161 150 150 193 251 237 235 241 246 242 250 229 251 207 187 172 161 155 154 164
232 229 226 228 229 224 222 233 209 206 208 207 211 223 224 210 217 238 197 200 187 203 192 207 161 214 174 149 143 155 168 179 175 196 192 159 178 217 236 200 226 221 218 219 209 207 195 175 168 169 172 175 178 201
238 225 222 225 223 218 216 222 209 195 192 198 204 203 211 197 189 156 153 181 201 218 220 202 157 161 170 157 161 134 191 170 169 225 151 196 241 238 231 224 228 220 216 207 180 183 186 180 188 204 220 237 251 258
235 231 218 222 220 217 211 213 203 188 189 186 188 203 182 162 163 186 185 182 187 308 203 204 177 138 179 141 161 204 171 173 148 241 160 233 265 219 211 213 211 201 194 177 181 169 195 220 217 211 213 213 204 227
235 228 221 219 221 214 207 205 194 193 195 183 178 149 154 180 179 113 213 276 210 225 171 139 156 131 145 144 120 181 137 108 220 134 158 257 248 201 179 183 190 190 192 193 194 191 185 172 160 147 142 126 124 140
234 226 218 219 219 211 205 202 191 198 185 164 184 164 176 173 164 189 198 249 237 171 174 162 135 141 131 142 88 134 152 190 115 198 230 228 162 165 164 158 155 165 172 160 150 142 136 134 127 120 115 105 59 297
214 223 221 215 214 215 217 201 189 199 185 169 162 196 189 200 229 193 186 182 181 157 154 144 127 142 141 101 141 124 258 74 146 238 233 213 160 147 147 146 147 142 137 136 131 126 121 110 99 82 31 328 306 296
215 213 228 209 209 213 216 203 188 193 178 173 176 210 198 206 162 169 165 140 139 156 151 121 102 146 45 103 71 105 41 243 218 230 228 157 150 144 139 136 136 133 130 126 118 113 103 91 66 346 311 301 297 294
227 214 213 221 204 207 209 205 188 198 208 191 205 115 136 127 168 167 174 149 154 158 152 143 119 76 232 132 104 211 140 222 248 218 147 149 144 141 138 136 133 126 119 112 109 106 47 303 302 300 298 295 291 292
222 227 208 205 207 200 204 196 185 192 217 201 203 204 168 173 177 178 175 173 165 160 175 128 111 194 109 63 268 194 202 220 202 140 151 150 147 144 140 135 127 115 107 92 297 290 292 296 295 287 279 278 288 301
219 226 217 195 192 193 193 190 176 197 223 200 163 174 185 159 156 165 171 170 162 200 155 187 129 120 174 169 245 222 155 128 141 145 147 150 150 146 141 136 130 238 290 304 303 300 294 279 263 248 256 276 294 313
214 212 209 213 210 186 176 185 181 178 193 155 174 184 179 172 180 182 176 173 172 170 152 141 103 176 213 211 182 156 154 148 143 144 147 151 155 159 167 194 289 321 319 302 264 217 188 170 161 1 316 336 314 312
217 217 207 198 197 207 172 177 182 164 167 163 162 153 157 157 160 166 171 169 161 159 122 159 207 203 188 177 173 176 164 161 155 147 151 159 166 178 188 196 176 149 132 127 129 123 108 56 8 344 328 327 324 321
214 213 214 211 232 225 195 148 153 173 141 135 145 136 109 134 126 145 162 169 184 205 170 201 195 181 174 168 164 174 170 169 169 169 168 165 169 170 162 149 136 124 137 132 143 149 193 304 330 331 328 331 333 335
204 203 210 223 216 217 230 153 136 126 134 139 134 113 117 123 135 144 150 151 122 117 167 180 161 154 151 147 150 161 162 167 172 170 170 173 164 162 161 158 156 164 167 172 199 321 348 347 342 340 341 343 344 339
202 201 202 200 147 111 248 138 95 111 124 152 136 104 113 129 150 136 84 85 101 105 151 158 153 148 150 143 150 154 162 169 163 158 156 157 157 157 159 155 153 151 142 130 103 65 40 28 18 9 6 9 16 12
185 195 196 167 104 119 170 243 103 105 106 160 112 107 145 142 156 89 93 71 50 119 149 152 150 146 146 147 149 151 153 159 155 149 150 158 156 146 146 144 137 133 121 105 91 81 72 59 43 33 31 30 25 26
194 188 157 116 104 113 211 178 110 100 100 122 112 125 172 154 95 72 92 85 75 114 138 155 161 166 156 149 148 150 150 156 160 157 146 154 153 145 141 138 131 125 113 105 108 101 93 81 67 50 45 48 45 42
151 29 20 105 117 166 228 121 134 124 112 99 89 119 143 91 71 71 58 18 40 90 140 154 165 166 160 161 154 154 154 156 158 156 147 144 141 141 140 138 132 122 123 118 110 103 93 84 75 61 52 51 48 45
40 357 357 44 54 339 277 70 93 96 101 117 147 134 91 76 86 63 60 47 63 79 130 158 165 171 160 153 152 154 156 154 153 153 146 142 139 138 139 136 127 118 109 102 99 94 88 81 73 64 49 39 36 32
22 24 36 8 41 8 304 53 44 42 63 44 66 54 80 59 89 60 54 81 110 121 125 131 140 147 147 147 146 148 149 151 148 143 136 132 129 129 128 124 116 108 103 95 86 77 66 58 54 51 44 35 28 24
30 0 52 31 18 30 30 34 34 3 352 44 94 95 96 74 88 99 97 112 124 124 118 117 116 126 132 134 139 144 145 150 152 146 140 128 124 122 124 120 115 110 100 87 80 74 65 53 45 40 35 31 26 20
14 22 83 34 46 32 22 42 69 68 83 92 104 104 93 78 79 97 103 107 107 99 99 104 112 122 123 129 128 134 137 143 149 148 138 128 121 122 124 122 122 120 115 105 88 66 48 36 26 21 19 12 9 14
29 48 52 70 94 94 90 88 85 83 85 90 93 93 99 97 71 68 70 77 87 98 104 101 100 103 109 114 119 124 119 122 123 122 119 117 116 115 113 109 104 97 89 80 74 67 58 45 34 25 17 13 13 14
60 63 101 106 104 106 95 86 83 78 72 69 64 71 71 66 70 41 34 58 75 80 81 87 91 85 89 96 101 106 110 112 116 117 115 111 108 103 97 90 82 72 61 53 46 38 33 27 19 11 8 8 6 3
80 99 106 104 122 127 142 93 88 74 50 53 39 41 45 61 72 25 32 40 49 59 75 84 84 81 82 85 88 92 96 98 101 103 101 106 107 91 73 56 41 26 10 3 360 354 349 346 340 339 340 340 339 339
Wind_Speed_850mb
29 27 25 27 31 28 18 21 24 21 18 15 17 16 9 6 7 16 22 23 35 16 31 28 44 18 27 29 9 14 9 2 7 9 7 7 6 9 6 7 11 18 13 11 6 4 16 15 11 17 7 1 1 4
30 30 29 27 33 35 30 21 25 27 23 20 19 20 15 15 20 25 32 24 28 38 15 38 55 45 42 50 41 38 14 17 23 6 6 4 3 4 4 7 4 8 10 11 16 13 12 40 19 39 4 2 3 3
36 34 34 30 29 34 37 33 28 24 27 23 22 21 19 19 24 31 30 30 27 31 31 35 44 53 46 40 46 19 10 19 18 8 10 4 6 5 7 8 4 9 3 3 7 10 13 34 54 24 24 6 6 11
39 41 36 34 32 32 37 39 31 27 28 26 23 21 19 19 24 23 22 22 32 7 7 11 35 41 61 34 35 38 24 27 22 16 7 5 5 8 5 6 1 1 3 9 9 9 4 25 41 50 34 17 13 15
44 41 40 38 34 32 37 40 36 29 28 27 22 21 18 17 14 7 6 19 22 16 4 3 16 32 43 56 27 26 24 28 20 9 2 5 7 6 2 2 6 14 10 7 10 25 21 16 44 50 36 35 27 27
48 45 42 38 37 35 33 42 38 32 34 29 23 19 19 7 3 2 4 9 17 24 6 3 5 16 26 36 36 28 28 17 12 9 8 8 10 9 6 6 13 19 20 27 17 20 40 18 18 26 38 36 33 29
52 50 46 44 40 36 33 38 42 31 30 31 26 21 16 13 18 14 8 6 22 18 8 3 4 5 16 18 18 19 24 12 11 7 7 11 5 8 4 9 13 38 23 19 33 25 15 26 13 17 17 27 36 33
57 54 50 47 42 39 33 32 44 33 28 24 24 19 16 13 20 29 26 16 26 20 7 3 2 5 18 9 9 19 17 16 16 7 8 6 10 3 9 20 41 56 48 45 43 37 30 23 25 22 21 24 27 24
64 60 55 51 46 44 34 33 44 37 31 25 28 20 12 12 14 10 13 12 31 12 7 6 9 9 22 8 11 13 13 5 15 6 8 17 6 12 13 16 34 48 49 45 38 30 24 28 28 25 21 15 11 11
66 68 62 57 51 49 37 37 41 42 31 36 27 11 11 12 12 16 13 15 16 13 14 4 12 6 17 11 7 10 7 6 5 7 17 7 10 40 29 21 26 37 41 36 48 38 31 25 23 18 14 15 15 15
70 69 73 66 60 56 46 42 42 48 41 44 18 12 13 19 18 10 8 6 8 6 17 9 16 9 14 5 5 6 4 4 5 8 9 6 8 11 51 48 37 40 35 37 29 23 20 22 24 21 18 14 8 5
79 76 78 74 71 62 56 48 51 60 28 42 17 17 19 13 8 6 7 2 8 11 13 12 10 12 13 9 6 5 4 3 7 9 2 7 8 15 45 49 44 43 41 32 31 31 30 25 22 19 16 14 10 4
58 82 80 82 74 69 54 61 64 70 47 46 16 13 11 10 4 14 16 9 4 17 25 19 9 14 10 7 8 4 6 6 7 5 8 8 7 28 29 30 30 30 35 35 36 35 32 29 25 20 13 8 2 6
67 48 91 83 90 69 64 69 71 69 55 18 20 9 12 8 11 11 10 10 15 19 41 38 15 8 7 5 4 9 4 3 1 5 11 4 32 42 40 41 48 48 45 42 39 33 27 22 16 10 5 8 14 21
46 69 44 98 81 82 79 73 80 83 30 20 17 13 15 17 6 12 18 22 16 49 59 20 10 10 1 8 3 7 7 8 10 9 6 29 54 57 54 52 48 44 38 33 28 22 17 12 7 6 11 17 23 28
62 47 69 63 94 87 73 71 84 95 15 25 17 7 5 8 3 16 23 19 44 56 34 9 7 7 2 9 7 14 13 12 8 7 26 61 62 57 53 46 39 32 25 19 13 7 1 6 12 15 18 21 25 27
51 55 51 55 83 85 83 74 66 46 18 19 8 33 29 12 16 25 33 38 59 54 7 7 9 14 6 6 3 9 10 7 8 28 63 65 58 48 40 32 23 15 8 2 4 10 14 16 18 19 17 15 15 15
67 60 60 58 61 96 91 59 38 24 15 15 14 27 42 14 24 26 29 58 50 23 22 11 19 6 11 13 7 8 10 20 36 61 63 55 45 36 25 14 6 2 6 9 13 14 16 15 13 11 5 4 6 7
67 63 54 60 60 51 36 37 31 10 12 17 27 59 40 23 22 26 38 80 29 31 25 12 8 7 8 9 9 26 52 56 68 61 55 46 34 22 11 4 3 6 8 7 6 7 9 8 3 1 3 3 6 10
57 61 67 60 57 29 21 18 50 18 10 19 34 36 25 21 33 37 45 60 32 18 5 5 8 10 12 14 19 50 65 75 81 66 49 39 29 18 11 6 6 8 11 13 13 10 6 3 4 6 10 12 12 15
55 63 59 54 38 40 17 22 18 30 28 14 36 32 20 34 26 22 30 43 13 6 3 6 10 15 17 22 35 50 65 77 78 71 68 48 31 20 17 16 13 12 10 8 4 3 2 4 7 10 12 15 19 21
60 57 58 49 27 15 6 16 30 28 20 29 27 18 19 5 13 22 36 8 8 4 5 7 24 27 33 45 52 53 67 61 50 42 41 33 35 31 24 19 15 12 9 6 2 2 6 9 11 13 15 16 18 19
54 45 33 23 11 6 6 28 13 11 11 19 23 9 5 7 19 42 9 8 6 4 11 27 33 36 49 54 56 56 48 43 42 39 38 37 36 31 25 21 16 11 9 7 5 6 7 9 11 12 14 15 14 13
54 35 22 14 11 7 5 3 14 14 13 9 8 10 6 7 25 6 8 6 10 10 22 32 40 46 46 44 46 45 41 36 39 39 34 34 37 34 26 21 18 15 12 13 13 12 11 10 11 13 14 17 18 18
13 11 11 8 10 10 7 6 9 8 8 6 9 7 7 14 5 6 5 6 14 20 25 30 31 34 44 43 40 39 38 34 35 38 35 26 29 32 29 25 23 20 18 15 13 13 13 12 11 12 16 19 20 22
5 9 2 7 7 7 10 10 11 11 9 7 6 9 9 6 9 8 5 9 8 11 16 21 25 31 32 32 36 37 36 34 32 33 34 30 26 22 27 26 26 23 22 19 17 17 18 19 18 18 20 24 27 28
11 11 11 22 7 9 7 12 13 11 11 8 8 8 7 9 7 5 5 16 11 10 12 19 21 27 34 32 30 33 36 35 31 31 36 31 28 25 21 20 20 19 19 17 17 17 16 17 18 18 20 23 26 28
13 21 13 17 16 24 9 10 11 10 7 10 10 12 8 8 5 5 9 13 17 20 23 27 28 30 32 32 35 40 41 39 42 39 36 34 29 25 22 20 18 17 14 11 11 12 12 12 13 15 17 18 22 23
13 30 16 20 10 14 19 13 9 15 14 7 8 7 9 12 16 21 25 24 26 33 40 40 39 34 35 37 40 43 46 44 39 36 31 31 27 22 18 16 14 11 9 8 8 8 9 10 11 13 14 16 18 19
22 27 11 15 13 19 22 27 27 42 49 45 58 92 80 68 59 43 40 39 39 41 40 41 41 41 46 43 42 40 35 30 26 24 26 24 20 19 16 13 11 10 8 7 6 6 8 9 11 13 12 10 10 11
16 23 18 19 16 53 67 78 88 95 92 89 76 81 71 57 78 71 58 46 41 40 41 42 41 41 41 42 41 40 38 32 29 27 25 22 19 17 14 13 11 9 9 8 7 7 7 8 9 11 12 13 16 19
22 21 18 42 36 58 64 68 70 75 69 65 51 41 33 23 20 37 60 41 38 42 41 39 39 38 34 33 33 33 32 28 24 23 21 18 16 14 12 11 9 8 8 8 9 10 12 12 13 13 14 17 19 21
25 33 38 34 19 13 16 14 15 19 31 20 29 31 34 17 18 26 35 46 41 29 27 28 32 32 30 28 25 23 21 19 18 16 15 13 11 9 8 6 5 6 6 7 9 10 11 13 15 16 18 19 21 23
Wind_Direction_850mb
264 263 265 246 240 229 233 248 253 252 258 268 264 268 285 278 267 245 262 239 235 247 252 249 236 227 201 200 147 160 102 191 156 200 174 205 175 211 163 205 176 182 165 181 128 116 257 176 123 175 242 346 37 58
261 253 259 260 244 237 229 238 251 251 250 258 268 268 273 283 285 284 277 280 245 246 256 241 232 243 235 221 207 181 192 162 176 143 214 139 128 144 178 205 175 241 195 170 178 205 197 184 193 217 316 210 134 120
256 256 249 255 256 238 235 230 246 253 245 250 266 272 274 283 291 285 271 262 257 244 261 222 225 225 226 217 211 181 209 181 186 164 140 166 200 135 175 240 181 231 144 204 91 235 198 201 213 223 221 222 139 136
251 253 251 248 252 252 236 231 238 248 244 246 260 278 281 296 297 278 265 265 221 225 255 231 220 224 223 223 212 207 193 189 176 171 134 148 158 193 185 134 20 309 279 170 272 290 279 238 226 233 218 187 176 158
247 247 250 248 245 249 241 233 228 239 236 248 252 274 281 302 307 293 305 219 222 213 306 278 224 217 225 231 229 211 194 177 169 133 124 216 153 129 178 100 220 157 246 190 227 185 209 221 231 236 224 206 193 182
242 244 246 247 241 244 248 230 223 236 228 240 248 262 271 295 243 197 256 188 224 219 304 306 228 211 207 209 207 211 200 172 172 181 189 208 169 174 177 220 212 161 212 288 306 294 219 222 221 239 235 220 209 220
237 236 239 244 238 235 241 229 216 230 234 234 242 247 253 257 244 257 274 255 199 212 240 289 243 204 183 180 182 201 211 197 192 184 226 151 197 178 213 228 220 213 245 259 268 279 232 207 211 221 224 205 197 193
235 232 232 236 237 230 232 234 211 217 223 230 223 235 242 250 230 256 260 255 214 194 220 234 135 170 181 154 141 165 166 167 192 227 161 150 150 193 251 237 235 241 246 242 250 229 251 207 187 172 161 155 154 164
232 229 226 228 229 224 222 233 209 206 208 207 211 223 224 210 217 238 197 200 187 203 192 207 161 214 174 149 143 155 168 179 175 196 192 159 178 217 236 200 226 221 218 219 209 207 195 175 168 169 172 175 178 201
238 225 222 225 223 218 216 222 209 195 192 198 204 203 211 197 189 156 153 181 201 218 220 202 157 161 170 157 161 134 191 170 169 225 151 196 241 238 231 224 228 220 216 207 180 183 186 180 188 204 220 237 251 258
235 231 218 222 220 217 211 213 203 188 189 186 188 203 182 162 163 186 185 182 187 308 203 204 177 138 179 141 161 204 171 173 148 241 160 233 265 219 211 213 211 201 194 177 181 169 195 220 217 211 213 213 204 227
235 228 221 219 221 214 207 205 194 193 195 183 178 149 154 180 179 113 213 276 210 225 171 139 156 131 145 144 120 181 137 108 220 134 158 257 248 201 179 183 190 190 192 193 194 191 185 172 160 147 142 126 124 140
234 226 218 219 219 211 205 202 191 198 185 164 184 164 176 173 164 189 198 249 237 171 174 162 135 141 131 142 88 134 152 190 115 198 230 228 162 165 164 158 155 165 172 160 150 142 136 134 127 120 115 105 59 297
214 223 221 215 214 215 217 201 189 199 185 169 162 196 189 200 229 193 186 182 181 157 154 144 127 142 141 101 141 124 258 74 146 238 233 213 160 147 147 146 147 142 137 136 131 126 121 110 99 82 31 328 306 296
215 213 228 209 209 213 216 203 188 193 178 173 176 210 198 206 162 169 165 140 139 156 151 121 102 146 45 103 71 105 41 243 218 230 228 157 150 144 139 136 136 133 130 126 118 113 103 91 66 346 311 301 297 294
227 214 213 221 204 207 209 205 188 198 208 191 205 115 136 127 168 167 174 149 154 158 152 143 119 76 232 132 104 211 140 222 248 218 147 149 144 141 138 136 133 126 119 112 109 106 47 303 302 300 298 295 291 292
222 227 208 205 207 200 204 196 185 192 217 201 203 204 168 173 177 178 175 173 165 160 175 128 111 194 109 63 268 194 202 220 202 140 151 150 147 144 140 135 127 115 107 92 297 290 292 296 295 287 279 278 288 301
219 226 217 195 192 193 193 190 176 197 223 200 163 174 185 159 156 165 171 170 162 200 155 187 129 120 174 169 245 222 155 128 141 145 147 150 150 146 141 136 130 238 290 304 303 300 294 279 263 248 256 276 294 313
214 212 209 213 210 186 176 185 181 178 193 155 174 184 179 172 180 182 176 173 172 170 152 141 103 176 213 211 182 156 154 148 143 144 147 151 155 159 167 194 289 321 319 302 264 217 188 170 161 1 316 336 314 312
217 217 207 198 197 207 172 177 182 164 167 163 162 153 157 157 160 166 171 169 161 159 122 159 207 203 188 177 173 176 164 161 155 147 151 159 166 178 188 196 176 149 132 127 129 123 108 56 8 344 328 327 324 321
214 213 214 211 232 225 195 148 153 173 141 135 145 136 109 134 126 145 162 169 184 205 170 201 195 181 174 168 164 174 170 169 169 169 168 165 169 170 162 149 136 124 137 132 143 149 193 304 330 331 328 331 333 335
204 203 210 223 216 217 230 153 136 126 134 139 134 113 117 123 135 144 150 151 122 117 167 180 161 154 151 147 150 161 162 167 172 170 170 173 164 162 161 158 156 164 167 172 199 321 348 347 342 340 341 343 344 339
202 201 202 200 147 111 248 138 95 111 124 152 136 104 113 129 150 136 84 85 101 105 151 158 153 148 150 143 150 154 162 169 163 158 156 157 157 157 159 155 153 151 142 130 103 65 40 28 18 9 6 9 16 12
185 195 196 167 104 119 170 243 103 105 106 160 112 107 145 142 156 89 93 71 50 119 149 152 150 146 146 147 149 151 153 159 155 149 150 158 156 146 146 144 137 133 121 105 91 81 72 59 43 33 31 30 25 26
194 188 157 116 104 113 211 178 110 100 100 122 112 125 172 154 95 72 92 85 75 114 138 155 161 166 156 149 148 150 150 156 160 157 146 154 153 145 141 138 131 125 113 105 108 101 93 81 67 50 45 48 45 42
151 29 20 105 117 166 228 121 134 124 112 99 89 119 143 91 71 71 58 18 40 90 140 154 165 166 160 161 154 154 154 156 158 156 147 144 141 141 140 138 132 122 123 118 110 103 93 84 75 61 52 51 48 45
40 357 357 44 54 339 277 70 93 96 101 117 147 134 91 76 86 63 60 47 63 79 130 158 165 171 160 153 152 154 156 154 153 153 146 142 139 138 139 136 127 118 109 102 99 94 88 81 73 64 49 39 36 32
22 24 36 8 41 8 304 53 44 42 63 44 66 54 80 59 89 60 54 81 110 121 125 131 140 147 147 147 146 148 149 151 148 143 136 132 129 129 128 124 116 108 103 95 86 77 66 58 54 51 44 35 28 24
30 0 52 31 18 30 30 34 34 3 352 44 94 95 96 74 88 99 97 112 124 124 118 117 116 126 132 134 139 144 145 150 152 146 140 128 124 122 124 120 115 110 100 87 80 74 65 53 45 40 35 31 26 20
14 22 83 34 46 32 22 42 69 68 83 92 104 104 93 78 79 97 103 107 107 99 99 104 112 122 123 129 128 134 137 143 149 148 138 128 121 122 124 122 122 120 115 105 88 66 48 36 26 21 19 12 9 14
29 48 52 70 94 94 90 88 85 83 85 90 93 93 99 97 71 68 70 77 87 98 104 101 100 103 109 114 119 124 119 122 123 122 119 117 116 115 113 109 104 97 89 80 74 67 58 45 34 25 17 13 13 14
60 63 101 106 104 106 95 86 83 78 72 69 64 71 71 66 70 41 34 58 75 80 81 87 91 85 89 96 101 106 110 112 116 117 115 111 108 103 97 90 82 72 61 53 46 38 33 27 19 11 8 8 6 3
80 99 106 104 122 127 142 93 88 74 50 53 39 41 45 61 72 25 32 40 49 59 75 84 84 81 82 85 88 92 96 98 101 103 101 106 107 91 73 56 41 26 10 3 360 354 349 346 340 339 340 340 339 339